Zurück zum Katalog

STARLINK-3809

AktivKommunikationVLEO
NORAD 52851·PAYLOAD·🇺🇸 United States

Gestartet Jun 17, 2022 von Cape Canaveral Space Force Station

Loading…

Nächste Überflüge (nächste 24 Stunden)

TLE

AktuellSource: CelesTrak SupGP

Epoche: Sep 15, 2026, 01:47 UTC

1 52851C 22062X   26258.07479167 -.00047773  00000+0 -14114-2 0  2587
2 52851  53.1567 238.9967 0001412  94.7261   2.0685 15.34416301    11

Verfolge STARLINK-3809 in Echtzeit mit AllMySat

Download on the App Store